Zurück zum Katalog

RADUGA 1-5

AktivKommunikationGEO
NORAD 26477·PAYLOAD·🇷🇺 Russia

Gestartet Aug 28, 2000 von Baikonur Cosmodrome

Loading…

TLE

AktuellSource: Space-Track

Epoche: Sep 14, 2026, 20:56 UTC

1 26477U 00049A   26257.87268719  .00000007  00000-0  00000-0 0  9996
2 26477  14.0174   7.3856 0000887  98.6930 264.6624  1.00210627 95320

Verfolge RADUGA 1-5 in Echtzeit mit AllMySat

Download on the App Store